Tracking 19247 objects as of 25-Sep-2018
HD Live streaming from Space Station
objects crossing your sky now

BONUM 1

Track BONUM 1 now!
BONUM 1 is classified as:


NORAD ID: 25546
Int'l Code: 1998-068A
Perigee: 36,125.8 km
Apogee: 36,159.3 km
Inclination: 5.1 °
Period: 1,454.0 minutes
Semi major axis: 42513 km
RCS: 0.003 m2 (small)
Launch date: November 22, 1998
Source: Commonwealth of Independent States (former USSR) (CIS)
Launch site: AIR FORCE EASTERN TEST RANGE (AFETR)

Television broadcasting; 8 Ku-band, Siberia or Europe, selected.
aabbcc
Your satellite tracking list
Your tracking list is empty




NASA's NSSDC Master Catalog

Two Line Element Set (TLE):
1 25546U 98068A   18267.16528662 -.00000166 +00000-0 +00000-0 0  9997
2 25546 005.1047 065.0418 0003940 261.6204 098.5966 00.99040417072570
Source of the keplerian elements: AFSPC